Regional Weather Roundup
Issued by NWS

Home | Current Version | Previous Version | Text Only | Print | Product List | Glossary On
Versions: 1 2 3 4 5 6 7 8 9 10 11 12 13 14 15 16 17 18 19 20 21 22 23 24 25 26 27 28 29 30 31 32 33 34 35 36 37 38 39 40 41 42 43 44 45 46 47 48 49 50
833
ASUS44 KJAN 180110
RWRMS

MISSISSIPPI HOURLY WEATHER ROUNDUP
NATIONAL WEATHER SERVICE JACKSON MS
700 PM CST WED DEC 17 2014

NOTE: "FAIR: INDICATES FEW OR NO CLOUDS BELOW 12,000 FEET WITH NO
SIGNIFICANT WEATHER AND/OR OBSTRUCTIONS TO VISIBILITY.

MSZ001>002-007>008-010>013-018>021-025>028-034>036-180200-
NORTHWEST MISSISSIPPI

CITY           SKY/WX    TMP DP  RH WIND       PRES   REMARKS
CLARKSDALE     MOCLDY    41  36  81 N9        30.26S
CLEVELAND      CLOUDY    43  38  83 N8        30.24R
GREENWOOD      CLOUDY    41  36  82 N6        30.23R
GREENVILLE     CLOUDY    44  37  76 NE7       30.24R
GRENADA        FAIR      43  36  75 CALM      30.24R
OLIVE BRANCH   CLOUDY    37  36  93 CALM      30.27R
OXFORD         FAIR      39  32  75 NE7       30.25S WCI  34
TUNICA         CLOUDY    39  34  81 N9        30.27F WCI  33
$$

MSZ003>006-009-014>017-022>024-029>033-037>039-180200-
NORTHEAST MISSISSIPPI

CITY           SKY/WX    TMP DP  RH WIND       PRES   REMARKS
COLUMBUS AFB   CLOUDY    41  37  84 N3        30.24F
CORINTH        FAIR      41  34  75 N3        30.26S
GOLDN TRIANGLE CLOUDY    43  36  75 N5        30.22F
STARKVILLE     FAIR      43  37  81 N3        30.23S
TUPELO         CLOUDY    42  35  76 NE6       30.25S
$$

MSZ040-058-180200-
CENTRAL MISSISSIPPI

CITY           SKY/WX    TMP DP  RH WIND       PRES   REMARKS
JACKSON INTL   CLOUDY    47  41  80 NE3       30.20S
JACKSON HAWKNS CLOUDY    50  39  66 CALM      30.21R
MERIDIAN KEY   CLOUDY    44  39  82 CALM      30.22R
MERIDIAN NAS   CLOUDY    47  38  71 NE3       30.23R
RAYMOND        FAIR      46  41  81 MISG      30.21S
VICKSBURG      CLOUDY    48  39  71 N5        30.22R
$$

MSZ059>079-180200-
SOUTH MISSISSIPPI

CITY           SKY/WX    TMP DP  RH WIND       PRES   REMARKS
HATTIESBURG    MOCLDY    46  42  86 CALM      30.22R
MCCOMB         MOCLDY    48  41  76 CALM      30.19S
NATCHEZ        PTCLDY    48  37  66 CALM      30.20R
PINE BELT      MOCLDY    43  37  81 CALM      30.21F
$$

MSZ080>082-180200-
COASTAL MISSISSIPPI

CITY           SKY/WX    TMP DP  RH WIND       PRES   REMARKS
BILOXI         PTCLDY    50  42  75 CALM      30.19S
PASCAGOULA     PTCLDY    40  39  97 CALM      30.21R
GULFPORT       PTCLDY    47  41  80 CALM      30.19S
$$



USA.gov is the U.S. government's official web portal to all federal, state and local government web resources and services.